TimeCST,TemperatureF,Dew PointF,Humidity,Sea Level PressureIn,VisibilityMPH,Wind Direction,Wind SpeedMPH,Gust SpeedMPH,PrecipitationIn,Events,Conditions,WindDirDegrees,DateUTC
12:00 AM,68,60,68,29.86,12,NE,2.3,,,,Clear,40,2013-06-11 06:00:00
12:00 AM,68.0,60.8,78,30.01,-9999.0,NE,2.3,-,N/A,,Clear,40,2013-06-11 06:00:00
1:00 AM,66.2,60.8,83,30.01,-9999.0,NE,3.5,-,N/A,,Clear,50,2013-06-11 07:00:00
2:00 AM,66.2,60.8,83,30.02,-9999.0,NNE,2.3,-,N/A,,Clear,30,2013-06-11 08:00:00
3:00 AM,64,60,84,29.91,12,North,3.5,,,,Clear,10,2013-06-11 09:00:00
3:00 AM,64.4,60.8,88,30.01,-9999.0,North,3.5,-,N/A,,Clear,10,2013-06-11 09:00:00
4:00 AM,64.4,59.0,83,30.01,-9999.0,ENE,5.8,-,N/A,,Clear,60,2013-06-11 10:00:00
5:00 AM,64.4,59.0,83,30.01,-9999.0,ENE,5.8,-,N/A,,Clear,70,2013-06-11 11:00:00
6:00 AM,66,59,73,29.91,12,ENE,4.6,,,,Mostly Cloudy,70,2013-06-11 12:00:00
6:00 AM,66.2,59.0,78,30.02,-9999.0,ENE,4.6,-,N/A,,Clear,70,2013-06-11 12:00:00
7:00 AM,69.8,59.0,68,30.04,-9999.0,North,9.2,-,N/A,,Clear,10,2013-06-11 13:00:00
8:00 AM,73.4,60.8,65,30.05,-9999.0,NNE,10.4,-,N/A,,Clear,20,2013-06-11 14:00:00
9:00 AM,78,59,43,29.88,12,East,11.5,,,,Mostly Cloudy,80,2013-06-11 15:00:00
9:00 AM,77.0,59.0,54,30.05,-9999.0,East,11.5,-,N/A,,Clear,80,2013-06-11 15:00:00
10:00 AM,80.6,59.0,48,30.05,6.2,SE,11.5,-,N/A,,Mostly Cloudy,130,2013-06-11 16:00:00
10:20 AM,80.6,60.8,51,30.04,6.2,WNW,10.4,-,N/A,,Mostly Cloudy,290,2013-06-11 16:20:00
11:00 AM,82.4,59.0,45,30.03,6.2,ENE,13.8,-,N/A,,Mostly Cloudy,70,2013-06-11 17:00:00
12:00 PM,83,60,35,29.85,12,East,9.2,,,,Overcast,100,2013-06-11 18:00:00
12:00 PM,84.2,59.0,42,30.02,6.2,East,9.2,-,N/A,,Mostly Cloudy,100,2013-06-11 18:00:00
1:00 PM,82.4,68.0,62,30.01,6.2,WSW,11.5,-,N/A,,Mostly Cloudy,240,2013-06-11 19:00:00
2:00 PM,78.8,68.0,69,29.98,6.2,WSW,13.8,-,N/A,,Mostly Cloudy,240,2013-06-11 20:00:00
3:00 PM,78,69,67,29.82,12,WSW,8.1,,,,Overcast,240,2013-06-11 21:00:00
3:00 PM,78.8,69.8,74,29.98,6.2,WSW,8.1,-,N/A,,Mostly Cloudy,240,2013-06-11 21:00:00
4:00 PM,78.8,69.8,74,29.98,6.2,WSW,8.1,-,N/A,,Scattered Clouds,250,2013-06-11 22:00:00
4:20 PM,77.0,69.8,78,29.98,6.2,SW,8.1,-,N/A,Rain,Rain,220,2013-06-11 22:20:00
5:00 PM,73.4,71.6,94,29.98,6.2,SW,6.9,-,N/A,,Mostly Cloudy,230,2013-06-11 23:00:00
6:00 PM,72,70,91,29.83,2,SW,6.9,,,,Overcast,230,2013-06-12 00:00:00
6:00 PM,71.6,69.8,94,29.97,2.5,SW,6.9,-,N/A,,Drizzle,230,2013-06-12 00:00:00
7:00 PM,71.6,69.8,94,30.01,5.0,WNW,2.3,-,N/A,Fog,Fog,300,2013-06-12 01:00:00
8:00 PM,71.6,68.0,88,30.00,6.2,NW,2.3,-,N/A,,Scattered Clouds,310,2013-06-12 02:00:00
8:10 PM,69.8,68.0,94,30.02,3.1,SSW,1.2,-,N/A,,Scattered Clouds,210,2013-06-12 02:10:00
9:00 PM,70,68,92,29.87,2,WSW,2.3,,,,Mist,240,2013-06-12 03:00:00
9:00 PM,69.8,68.0,94,30.03,6.2,WSW,2.3,-,N/A,Fog,Patches of Fog,240,2013-06-12 03:00:00
9:15 PM,69.8,68.0,94,30.04,0.2,SW,4.6,-,N/A,Fog,Fog,230,2013-06-12 03:15:00
10:00 PM,69.8,68.0,94,30.05,1.9,West,2.3,-,N/A,,Scattered Clouds,270,2013-06-12 04:00:00
11:00 PM,69.8,68.0,94,30.05,3.1,North,3.5,-,N/A,,Scattered Clouds,360,2013-06-12 05:00:00